Wetterdaten: Freitag, 04.04.2014
Datum Zeit Temperatur Luftfeuchte Luftdruck Regen Wind Richtung Richtung Taupunkt Windchill Windben
04.04.2014 00:00 6,9 C 62 % 1007,9 hPa 0,0 l/m 0,0 km/h (0 Bft) SW 225 0,1 C 0,0 C 0,0 km/h (0 Bft)
04.04.2014 00:05 7,1 C 63 % 1007,9 hPa 0,0 l/m 0,0 km/h (0 Bft) SW 225 0,5 C 0,0 C 0,0 km/h (0 Bft)
04.04.2014 00:10 7,0 C 62 % 1007,9 hPa 0,0 l/m 0,0 km/h (0 Bft) SW 225 0,2 C 0,0 C 0,0 km/h (0 Bft)
04.04.2014 00:15 6,8 C 63 % 1007,9 hPa 0,0 l/m 0,0 km/h (0 Bft) SW 225 0,3 C 0,0 C 0,0 km/h (0 Bft)
04.04.2014 00:20 6,7 C 63 % 1007,9 hPa 0,0 l/m 0,0 km/h (0 Bft) SW 225 0,2 C 0,0 C 0,0 km/h (0 Bft)
04.04.2014 00:25 6,6 C 64 % 1007,9 hPa 0,0 l/m 0,0 km/h (0 Bft) SW 225 0,3 C 0,0 C 0,0 km/h (0 Bft)
04.04.2014 00:30 6,5 C 66 % 1007,8 hPa 0,0 l/m 0,0 km/h (0 Bft) SW 225 0,6 C 0,0 C 0,0 km/h (0 Bft)
04.04.2014 00:35 6,7 C 68 % 1007,8 hPa 0,0 l/m 0,0 km/h (0 Bft) SW 225 1,2 C 0,0 C 0,0 km/h (0 Bft)
04.04.2014 00:40 6,7 C 66 % 1007,8 hPa 0,0 l/m 0,0 km/h (0 Bft) SW 225 0,8 C 0,0 C 0,0 km/h (0 Bft)
04.04.2014 00:45 6,6 C 65 % 1007,8 hPa 0,0 l/m 0,0 km/h (0 Bft) SW 225 0,5 C 0,0 C 0,0 km/h (0 Bft)
04.04.2014 00:50 6,6 C 66 % 1007,8 hPa 0,0 l/m 0,0 km/h (0 Bft) SW 225 0,7 C 0,0 C 0,0 km/h (0 Bft)
04.04.2014 00:55 6,4 C 65 % 1007,8 hPa 0,0 l/m 0,0 km/h (0 Bft) SW 225 0,3 C 0,0 C 0,0 km/h (0 Bft)
04.04.2014 01:00 6,4 C 65 % 1007,8 hPa 0,0 l/m 0,0 km/h (0 Bft) SW 225 0,3 C 0,0 C 0,0 km/h (0 Bft)
04.04.2014 01:05 6,2 C 64 % 1007,8 hPa 0,0 l/m 0,0 km/h (0 Bft) SW 225 -0,1 C 0,0 C 0,0 km/h (0 Bft)
04.04.2014 01:10 6,2 C 64 % 1007,8 hPa 0,0 l/m 0,0 km/h (0 Bft) SW 225 -0,1 C 0,0 C 0,0 km/h (0 Bft)
04.04.2014 01:15 6,2 C 63 % 1007,8 hPa 0,0 l/m 0,0 km/h (0 Bft) SW 225 -0,3 C 0,0 C 0,0 km/h (0 Bft)
04.04.2014 01:20 6,2 C 62 % 1007,8 hPa 0,0 l/m 0,0 km/h (0 Bft) SW 225 -0,5 C 0,0 C 0,0 km/h (0 Bft)
04.04.2014 01:25 6,5 C 62 % 1007,8 hPa 0,0 l/m 0,0 km/h (0 Bft) SW 225 -0,2 C 0,0 C 0,0 km/h (0 Bft)
04.04.2014 01:30 6,4 C 62 % 1007,8 hPa 0,0 l/m 0,0 km/h (0 Bft) SW 225 -0,3 C 0,0 C 0,0 km/h (0 Bft)
04.04.2014 01:35 6,1 C 62 % 1007,8 hPa 0,0 l/m 0,0 km/h (0 Bft) SW 225 -0,6 C 0,0 C 0,0 km/h (0 Bft)
04.04.2014 01:40 5,7 C 65 % 1007,8 hPa 0,0 l/m 0,0 km/h (0 Bft) SW 225 -0,4 C 0,0 C 0,0 km/h (0 Bft)
04.04.2014 01:45 5,6 C 66 % 1007,8 hPa 0,0 l/m 0,0 km/h (0 Bft) SW 225 -0,2 C 0,0 C 0,0 km/h (0 Bft)
04.04.2014 01:50 5,5 C 66 % 1007,8 hPa 0,0 l/m 0,0 km/h (0 Bft) SW 225 -0,3 C 0,0 C 0,0 km/h (0 Bft)
04.04.2014 01:55 5,3 C 66 % 1007,8 hPa 0,0 l/m 0,0 km/h (0 Bft) SW 225 -0,5 C 0,0 C 0,0 km/h (0 Bft)
04.04.2014 02:00 5,6 C 67 % 1007,8 hPa 0,0 l/m 0,0 km/h (0 Bft) SW 225 -0,0 C 0,0 C 0,0 km/h (0 Bft)
04.04.2014 02:05 6,4 C 65 % 1007,8 hPa 0,0 l/m 0,0 km/h (0 Bft) SW 225 0,3 C 0,0 C 0,0 km/h (0 Bft)
04.04.2014 02:10 6,3 C 64 % 1007,8 hPa 0,0 l/m 0,0 km/h (0 Bft) SW 225 0,0 C 0,0 C 0,0 km/h (0 Bft)
04.04.2014 02:15 6,1 C 63 % 1007,8 hPa 0,0 l/m 0,0 km/h (0 Bft) SW 225 -0,4 C 0,0 C 0,0 km/h (0 Bft)
04.04.2014 02:20 5,5 C 64 % 1007,8 hPa 0,0 l/m 0,0 km/h (0 Bft) SW 225 -0,8 C 0,0 C 0,0 km/h (0 Bft)
04.04.2014 02:25 5,0 C 65 % 1007,8 hPa 0,0 l/m 0,0 km/h (0 Bft) SW 225 -1,0 C 0,0 C 0,0 km/h (0 Bft)
04.04.2014 02:30 5,0 C 66 % 1007,7 hPa 0,0 l/m 0,0 km/h (0 Bft) SW 225 -0,8 C 0,0 C 0,0 km/h (0 Bft)
04.04.2014 02:35 5,3 C 68 % 1007,7 hPa 0,0 l/m 0,0 km/h (0 Bft) SW 225 -0,1 C 0,0 C 0,0 km/h (0 Bft)
04.04.2014 02:40 5,2 C 67 % 1007,7 hPa 0,0 l/m 0,0 km/h (0 Bft) SW 225 -0,4 C 0,0 C 0,0 km/h (0 Bft)
04.04.2014 02:45 5,1 C 67 % 1007,7 hPa 0,0 l/m 0,0 km/h (0 Bft) SW 225 -0,5 C 0,0 C 0,0 km/h (0 Bft)
04.04.2014 02:50 5,0 C 67 % 1007,6 hPa 0,0 l/m 0,0 km/h (0 Bft) SW 225 -0,6 C 0,0 C 0,0 km/h (0 Bft)
04.04.2014 02:55 5,4 C 68 % 1007,6 hPa 0,0 l/m 0,0 km/h (0 Bft) SW 225 -0,0 C 0,0 C 0,0 km/h (0 Bft)
04.04.2014 03:00 5,4 C 67 % 1007,6 hPa 0,0 l/m 0,0 km/h (0 Bft) SW 225 -0,2 C 0,0 C 0,0 km/h (0 Bft)
04.04.2014 03:03 5,3 C 67 % 1007,6 hPa 0,0 l/m 0,0 km/h (0 Bft) SW 225 -0,3 C 0,0 C 0,0 km/h (0 Bft)
04.04.2014 03:05 5,3 C 67 % 1007,6 hPa 0,0 l/m 0,0 km/h (0 Bft) SW 225 -0,3 C 0,0 C 0,0 km/h (0 Bft)
04.04.2014 03:10 5,2 C 67 % 1007,4 hPa 0,0 l/m 0,0 km/h (0 Bft) SW 225 -0,4 C 0,0 C 0,0 km/h (0 Bft)
04.04.2014 03:15 4,9 C 68 % 1007,4 hPa 0,0 l/m 0,0 km/h (0 Bft) SW 225 -0,5 C 0,0 C 0,0 km/h (0 Bft)
04.04.2014 03:20 4,8 C 69 % 1007,4 hPa 0,0 l/m 0,0 km/h (0 Bft) SW 225 -0,4 C 0,0 C 0,0 km/h (0 Bft)
04.04.2014 03:25 5,4 C 68 % 1007,4 hPa 0,0 l/m 0,0 km/h (0 Bft) SW 225 -0,0 C 0,0 C 0,0 km/h (0 Bft)
04.04.2014 03:30 5,4 C 67 % 1007,6 hPa 0,0 l/m 0,0 km/h (0 Bft) SW 225 -0,2 C 0,0 C 0,0 km/h (0 Bft)
04.04.2014 03:35 5,3 C 67 % 1007,6 hPa 0,0 l/m 0,0 km/h (0 Bft) SW 225 -0,3 C 0,0 C 0,0 km/h (0 Bft)
04.04.2014 03:40 5,4 C 67 % 1007,6 hPa 0,0 l/m 0,0 km/h (0 Bft) SW 225 -0,2 C 0,0 C 0,0 km/h (0 Bft)
04.04.2014 03:45 5,3 C 68 % 1007,6 hPa 0,0 l/m 0,0 km/h (0 Bft) SW 225 -0,1 C 0,0 C 0,0 km/h (0 Bft)
04.04.2014 03:50 5,4 C 67 % 1007,4 hPa 0,0 l/m 0,0 km/h (0 Bft) SW 225 -0,2 C 0,0 C 0,0 km/h (0 Bft)
04.04.2014 03:55 5,3 C 67 % 1007,4 hPa 0,0 l/m 0,0 km/h (0 Bft) SW 225 -0,3 C 0,0 C 0,0 km/h (0 Bft)
04.04.2014 04:00 5,2 C 67 % 1007,4 hPa 0,0 l/m 0,0 km/h (0 Bft) SW 225 -0,4 C 0,0 C 0,0 km/h (0 Bft)
04.04.2014 04:05 5,4 C 67 % 1007,4 hPa 0,0 l/m 0,0 km/h (0 Bft) SW 225 -0,2 C 0,0 C 0,0 km/h (0 Bft)
04.04.2014 04:10 6,0 C 66 % 1007,5 hPa 0,0 l/m 0,0 km/h (0 Bft) SW 225 0,1 C 0,0 C 0,0 km/h (0 Bft)
04.04.2014 04:15 6,4 C 65 % 1007,5 hPa 0,0 l/m 0,0 km/h (0 Bft) SW 225 0,3 C 0,0 C 0,0 km/h (0 Bft)
04.04.2014 04:20 6,5 C 64 % 1007,5 hPa 0,0 l/m 0,0 km/h (0 Bft) SW 225 0,2 C 0,0 C 0,0 km/h (0 Bft)
04.04.2014 04:25 6,5 C 63 % 1007,5 hPa 0,0 l/m 0,0 km/h (0 Bft) SW 225 -0,0 C 0,0 C 0,0 km/h (0 Bft)
04.04.2014 04:30 6,6 C 62 % 1007,3 hPa 0,0 l/m 0,0 km/h (0 Bft) SW 225 -0,1 C 0,0 C 0,0 km/h (0 Bft)
04.04.2014 04:35 7,2 C 61 % 1007,3 hPa 0,0 l/m 0,0 km/h (0 Bft) SW 225 0,2 C 0,0 C 0,0 km/h (0 Bft)
04.04.2014 04:40 7,1 C 60 % 1007,3 hPa 0,0 l/m 0,0 km/h (0 Bft) SW 225 -0,1 C 0,0 C 0,0 km/h (0 Bft)
04.04.2014 04:45 7,0 C 60 % 1007,3 hPa 0,0 l/m 0,0 km/h (0 Bft) SW 225 -0,2 C 0,0 C 0,0 km/h (0 Bft)
04.04.2014 04:50 7,1 C 60 % 1007,2 hPa 0,0 l/m 0,0 km/h (0 Bft) SW 225 -0,1 C 0,0 C 0,0 km/h (0 Bft)
04.04.2014 04:55 7,1 C 59 % 1007,2 hPa 0,0 l/m 0,0 km/h (0 Bft) SW 225 -0,4 C 0,0 C 0,0 km/h (0 Bft)
04.04.2014 05:00 6,9 C 59 % 1007,2 hPa 0,0 l/m 0,0 km/h (0 Bft) SW 225 -0,5 C 0,0 C 0,0 km/h (0 Bft)
04.04.2014 05:05 6,8 C 59 % 1007,2 hPa 0,0 l/m 0,0 km/h (0 Bft) SW 225 -0,6 C 0,0 C 0,0 km/h (0 Bft)
04.04.2014 05:10 7,0 C 59 % 1007,1 hPa 0,0 l/m 0,0 km/h (0 Bft) SW 225 -0,5 C 0,0 C 0,0 km/h (0 Bft)
04.04.2014 05:15 6,9 C 59 % 1007,1 hPa 0,0 l/m 0,0 km/h (0 Bft) SW 225 -0,5 C 0,0 C 0,0 km/h (0 Bft)
04.04.2014 05:20 6,9 C 59 % 1007,1 hPa 0,0 l/m 0,0 km/h (0 Bft) SW 225 -0,5 C 0,0 C 0,0 km/h (0 Bft)
04.04.2014 05:25 6,7 C 59 % 1007,1 hPa 0,0 l/m 0,0 km/h (0 Bft) SW 225 -0,7 C 0,0 C 0,0 km/h (0 Bft)
04.04.2014 05:30 6,7 C 60 % 1007,1 hPa 0,0 l/m 0,0 km/h (0 Bft) SW 225 -0,5 C 0,0 C 0,0 km/h (0 Bft)
04.04.2014 05:35 6,6 C 59 % 1007,1 hPa 0,0 l/m 0,0 km/h (0 Bft) SW 225 -0,8 C 0,0 C 0,0 km/h (0 Bft)
04.04.2014 05:40 6,9 C 60 % 1007,1 hPa 0,0 l/m 0,0 km/h (0 Bft) SW 225 -0,3 C 0,0 C 0,0 km/h (0 Bft)
04.04.2014 05:45 7,2 C 60 % 1007,1 hPa 0,0 l/m 0,0 km/h (0 Bft) SW 225 -0,0 C 0,0 C 0,0 km/h (0 Bft)
04.04.2014 05:50 6,9 C 60 % 1007,0 hPa 0,0 l/m 0,0 km/h (0 Bft) SW 225 -0,3 C 0,0 C 0,0 km/h (0 Bft)
04.04.2014 05:55 7,0 C 60 % 1007,0 hPa 0,0 l/m 0,0 km/h (0 Bft) SW 225 -0,2 C 0,0 C 0,0 km/h (0 Bft)
04.04.2014 06:00 7,0 C 59 % 1007,0 hPa 0,0 l/m 0,0 km/h (0 Bft) SW 225 -0,5 C 0,0 C 0,0 km/h (0 Bft)
04.04.2014 06:05 6,8 C 59 % 1007,0 hPa 0,0 l/m 0,0 km/h (0 Bft) SW 225 -0,6 C 0,0 C 0,0 km/h (0 Bft)
04.04.2014 06:10 6,9 C 59 % 1007,2 hPa 0,0 l/m 0,0 km/h (0 Bft) SW 225 -0,5 C 0,0 C 0,0 km/h (0 Bft)
04.04.2014 06:15 6,6 C 60 % 1007,2 hPa 0,0 l/m 0,0 km/h (0 Bft) SW 225 -0,6 C 0,0 C 0,0 km/h (0 Bft)
04.04.2014 06:20 6,4 C 59 % 1007,2 hPa 0,0 l/m 0,0 km/h (0 Bft) SW 225 -1,0 C 0,0 C 0,0 km/h (0 Bft)
04.04.2014 06:25 6,4 C 60 % 1007,2 hPa 0,0 l/m 0,0 km/h (0 Bft) SW 225 -0,8 C 0,0 C 0,0 km/h (0 Bft)
04.04.2014 06:30 6,6 C 60 % 1007,1 hPa 0,0 l/m 0,0 km/h (0 Bft) SW 225 -0,6 C 0,0 C 0,0 km/h (0 Bft)
04.04.2014 06:35 6,7 C 60 % 1007,1 hPa 0,0 l/m 0,0 km/h (0 Bft) SW 225 -0,5 C 0,0 C 0,0 km/h (0 Bft)
04.04.2014 06:40 6,6 C 59 % 1007,1 hPa 0,0 l/m 0,0 km/h (0 Bft) SW 225 -0,8 C 0,0 C 0,0 km/h (0 Bft)
04.04.2014 06:45 6,3 C 59 % 1007,1 hPa 0,0 l/m 0,0 km/h (0 Bft) SW 225 -1,1 C 0,0 C 0,0 km/h (0 Bft)
04.04.2014 06:50 6,0 C 59 % 1007,2 hPa 0,0 l/m 0,0 km/h (0 Bft) SW 225 -1,4 C 0,0 C 0,0 km/h (0 Bft)
04.04.2014 06:55 6,0 C 60 % 1007,2 hPa 0,0 l/m 0,0 km/h (0 Bft) SW 225 -1,2 C 0,0 C 0,0 km/h (0 Bft)
04.04.2014 07:00 6,0 C 60 % 1007,2 hPa 0,0 l/m 0,0 km/h (0 Bft) SW 225 -1,2 C 0,0 C 0,0 km/h (0 Bft)
04.04.2014 07:05 6,0 C 60 % 1007,2 hPa 0,0 l/m 0,0 km/h (0 Bft) SW 225 -1,2 C 0,0 C 0,0 km/h (0 Bft)
04.04.2014 07:10 5,9 C 63 % 1007,4 hPa 0,0 l/m 0,0 km/h (0 Bft) SW 225 -0,6 C 0,0 C 0,0 km/h (0 Bft)
04.04.2014 07:15 5,8 C 63 % 1007,4 hPa 0,0 l/m 0,0 km/h (0 Bft) SW 225 -0,7 C 0,0 C 0,0 km/h (0 Bft)
04.04.2014 07:20 5,8 C 63 % 1007,4 hPa 0,0 l/m 0,0 km/h (0 Bft) SW 225 -0,7 C 0,0 C 0,0 km/h (0 Bft)
04.04.2014 07:25 5,6 C 64 % 1007,4 hPa 0,0 l/m 0,0 km/h (0 Bft) SW 225 -0,7 C 0,0 C 0,0 km/h (0 Bft)
04.04.2014 07:30 5,2 C 65 % 1006,8 hPa 0,0 l/m 0,0 km/h (0 Bft) SW 225 -0,8 C 0,0 C 0,0 km/h (0 Bft)
04.04.2014 07:35 5,0 C 65 % 1006,8 hPa 0,0 l/m 0,0 km/h (0 Bft) SW 225 -1,0 C 0,0 C 0,0 km/h (0 Bft)
04.04.2014 07:40 5,0 C 66 % 1006,8 hPa 0,0 l/m 0,0 km/h (0 Bft) SW 225 -0,8 C 0,0 C 0,0 km/h (0 Bft)
04.04.2014 07:45 5,0 C 67 % 1006,8 hPa 0,0 l/m 0,0 km/h (0 Bft) SW 225 -0,6 C 0,0 C 0,0 km/h (0 Bft)
04.04.2014 07:50 5,3 C 67 % 1007,2 hPa 0,0 l/m 0,0 km/h (0 Bft) SW 225 -0,3 C 0,0 C 0,0 km/h (0 Bft)
04.04.2014 07:55 5,8 C 66 % 1007,2 hPa 0,0 l/m 0,0 km/h (0 Bft) SW 225 -0,0 C 0,0 C 0,0 km/h (0 Bft)
04.04.2014 08:00 5,8 C 66 % 1007,2 hPa 0,0 l/m 0,0 km/h (0 Bft) SW 225 -0,0 C 0,0 C 0,0 km/h (0 Bft)
04.04.2014 08:05 6,1 C 65 % 1007,2 hPa 0,0 l/m 0,0 km/h (0 Bft) SW 225 0,0 C 0,0 C 0,0 km/h (0 Bft)
04.04.2014 08:10 6,3 C 65 % 1007,4 hPa 0,0 l/m 0,0 km/h (0 Bft) SW 225 0,2 C 0,0 C 0,0 km/h (0 Bft)
04.04.2014 08:15 6,0 C 66 % 1007,4 hPa 0,0 l/m 0,0 km/h (0 Bft) SW 225 0,1 C 0,0 C 0,0 km/h (0 Bft)
04.04.2014 08:20 6,0 C 67 % 1007,4 hPa 0,0 l/m 0,0 km/h (0 Bft) SW 225 0,3 C 0,0 C 0,0 km/h (0 Bft)
04.04.2014 08:25 6,0 C 67 % 1007,4 hPa 0,0 l/m 0,0 km/h (0 Bft) SW 225 0,3 C 0,0 C 0,0 km/h (0 Bft)
04.04.2014 08:30 6,4 C 66 % 1007,4 hPa 0,0 l/m 0,0 km/h (0 Bft) SW 225 0,5 C 0,0 C 0,0 km/h (0 Bft)
04.04.2014 08:35 6,7 C 66 % 1007,4 hPa 0,0 l/m 0,0 km/h (0 Bft) SW 225 0,8 C 0,0 C 0,0 km/h (0 Bft)
04.04.2014 08:40 6,7 C 66 % 1007,4 hPa 0,0 l/m 0,0 km/h (0 Bft) SW 225 0,8 C 0,0 C 0,0 km/h (0 Bft)
04.04.2014 08:45 6,7 C 67 % 1007,4 hPa 0,0 l/m 0,0 km/h (0 Bft) SW 225 1,0 C 0,0 C 0,0 km/h (0 Bft)
04.04.2014 08:50 6,8 C 66 % 1007,4 hPa 0,0 l/m 0,0 km/h (0 Bft) SW 225 0,9 C 0,0 C 0,0 km/h (0 Bft)
04.04.2014 08:55 6,9 C 65 % 1007,4 hPa 0,0 l/m 0,0 km/h (0 Bft) SW 225 0,8 C 0,0 C 0,0 km/h (0 Bft)
04.04.2014 08:58 7,3 C 65 % 1007,4 hPa 0,0 l/m 0,0 km/h (0 Bft) SW 225 1,2 C 0,0 C 0,0 km/h (0 Bft)
04.04.2014 09:00 7,3 C 65 % 1007,4 hPa 0,0 l/m 0,0 km/h (0 Bft) SW 225 1,2 C 0,0 C 0,0 km/h (0 Bft)
04.04.2014 09:05 7,4 C 65 % 1007,4 hPa 0,0 l/m 0,0 km/h (0 Bft) SW 225 1,3 C 0,0 C 0,0 km/h (0 Bft)
04.04.2014 09:10 7,5 C 65 % 1007,6 hPa 0,0 l/m 0,0 km/h (0 Bft) SW 225 1,4 C 0,0 C 0,0 km/h (0 Bft)
04.04.2014 09:15 7,7 C 64 % 1007,6 hPa 0,0 l/m 0,0 km/h (0 Bft) SW 225 1,3 C 0,0 C 0,0 km/h (0 Bft)
04.04.2014 09:20 7,9 C 65 % 1007,6 hPa 0,0 l/m 0,0 km/h (0 Bft) SW 225 1,7 C 0,0 C 0,0 km/h (0 Bft)
04.04.2014 09:25 8,0 C 65 % 1007,6 hPa 0,0 l/m 0,0 km/h (0 Bft) SW 225 1,8 C 0,0 C 0,0 km/h (0 Bft)
04.04.2014 09:30 8,2 C 65 % 1007,8 hPa 0,0 l/m 0,0 km/h (0 Bft) SW 225 2,0 C 0,0 C 0,0 km/h (0 Bft)
04.04.2014 09:35 8,5 C 64 % 1007,8 hPa 0,0 l/m 0,0 km/h (0 Bft) SW 225 2,1 C 0,0 C 0,0 km/h (0 Bft)
04.04.2014 09:40 8,6 C 65 % 1007,8 hPa 0,0 l/m 0,0 km/h (0 Bft) SW 225 2,4 C 0,0 C 0,0 km/h (0 Bft)
04.04.2014 09:45 8,9 C 65 % 1007,8 hPa 0,0 l/m 0,0 km/h (0 Bft) SW 225 2,7 C 0,0 C 0,0 km/h (0 Bft)
04.04.2014 09:50 9,0 C 65 % 1008,0 hPa 0,0 l/m 0,0 km/h (0 Bft) SW 225 2,8 C 0,0 C 0,0 km/h (0 Bft)
04.04.2014 09:55 9,1 C 64 % 1008,0 hPa 0,0 l/m 0,0 km/h (0 Bft) SW 225 2,7 C 0,0 C 0,0 km/h (0 Bft)
04.04.2014 10:00 9,1 C 63 % 1008,0 hPa 0,0 l/m 0,0 km/h (0 Bft) SW 225 2,4 C 0,0 C 0,0 km/h (0 Bft)
04.04.2014 10:05 9,4 C 62 % 1008,0 hPa 0,0 l/m 0,0 km/h (0 Bft) SW 225 2,5 C 0,0 C 0,0 km/h (0 Bft)
04.04.2014 10:10 9,5 C 62 % 1008,0 hPa 0,0 l/m 0,0 km/h (0 Bft) SW 225 2,6 C 0,0 C 0,0 km/h (0 Bft)
04.04.2014 10:15 9,7 C 61 % 1008,0 hPa 0,0 l/m 0,0 km/h (0 Bft) SW 225 2,5 C 0,0 C 0,0 km/h (0 Bft)
04.04.2014 10:20 9,8 C 62 % 1008,0 hPa 0,0 l/m 0,0 km/h (0 Bft) SW 225 2,9 C 0,0 C 0,0 km/h (0 Bft)
04.04.2014 10:25 10,0 C 61 % 1008,0 hPa 0,0 l/m 0,0 km/h (0 Bft) SW 225 2,8 C 0,0 C 0,0 km/h (0 Bft)
04.04.2014 10:30 10,1 C 61 % 1008,2 hPa 0,0 l/m 0,0 km/h (0 Bft) SW 225 2,9 C 0,0 C 0,0 km/h (0 Bft)
04.04.2014 10:35 10,3 C 61 % 1008,2 hPa 0,0 l/m 0,0 km/h (0 Bft) SW 225 3,1 C 0,0 C 0,0 km/h (0 Bft)
04.04.2014 10:40 10,4 C 61 % 1008,2 hPa 0,0 l/m 0,0 km/h (0 Bft) SW 225 3,2 C 0,0 C 0,0 km/h (0 Bft)
04.04.2014 10:45 10,4 C 59 % 1008,2 hPa 0,0 l/m 0,0 km/h (0 Bft) SW 225 2,7 C 0,0 C 0,0 km/h (0 Bft)
04.04.2014 10:50 10,6 C 60 % 1008,3 hPa 0,0 l/m 0,0 km/h (0 Bft) SW 225 3,2 C 0,0 C 0,0 km/h (0 Bft)
04.04.2014 10:55 10,9 C 60 % 1008,3 hPa 0,0 l/m 0,0 km/h (0 Bft) SW 225 3,4 C 0,0 C 0,0 km/h (0 Bft)
04.04.2014 11:00 11,0 C 59 % 1008,3 hPa 0,0 l/m 0,0 km/h (0 Bft) SW 225 3,3 C 0,0 C 0,0 km/h (0 Bft)
04.04.2014 11:05 11,2 C 59 % 1008,3 hPa 0,0 l/m 0,0 km/h (0 Bft) SW 225 3,5 C 0,0 C 0,0 km/h (0 Bft)
04.04.2014 11:10 11,2 C 59 % 1008,2 hPa 0,0 l/m 0,0 km/h (0 Bft) SW 225 3,5 C 0,0 C 0,0 km/h (0 Bft)
04.04.2014 11:15 11,4 C 58 % 1008,2 hPa 0,0 l/m 0,0 km/h (0 Bft) SW 225 3,4 C 0,0 C 0,0 km/h (0 Bft)
04.04.2014 11:20 11,5 C 59 % 1008,2 hPa 0,0 l/m 0,0 km/h (0 Bft) SW 225 3,8 C 0,0 C 0,0 km/h (0 Bft)
04.04.2014 11:25 11,7 C 58 % 1008,2 hPa 0,0 l/m 0,0 km/h (0 Bft) SW 225 3,7 C 0,0 C 0,0 km/h (0 Bft)
04.04.2014 11:30 12,0 C 58 % 1008,8 hPa 0,0 l/m 0,0 km/h (0 Bft) SW 225 4,0 C 0,0 C 0,0 km/h (0 Bft)
04.04.2014 11:35 12,2 C 56 % 1008,8 hPa 0,0 l/m 0,0 km/h (0 Bft) SW 225 3,7 C 0,0 C 0,0 km/h (0 Bft)
04.04.2014 11:40 12,2 C 56 % 1008,8 hPa 0,0 l/m 0,0 km/h (0 Bft) SW 225 3,7 C 0,0 C 0,0 km/h (0 Bft)
04.04.2014 11:45 12,7 C 56 % 1008,8 hPa 0,0 l/m 0,0 km/h (0 Bft) SW 225 4,2 C 0,0 C 0,0 km/h (0 Bft)
04.04.2014 11:50 13,1 C 54 % 1009,0 hPa 0,0 l/m 0,0 km/h (0 Bft) SW 225 4,0 C 0,0 C 0,0 km/h (0 Bft)
04.04.2014 11:55 13,1 C 53 % 1009,0 hPa 0,0 l/m 0,0 km/h (0 Bft) SW 225 3,7 C 0,0 C 0,0 km/h (0 Bft)
04.04.2014 12:00 13,6 C 53 % 1009,0 hPa 0,0 l/m 0,0 km/h (0 Bft) SW 225 4,2 C 0,0 C 0,0 km/h (0 Bft)
04.04.2014 12:05 13,9 C 52 % 1009,0 hPa 0,0 l/m 0,0 km/h (0 Bft) SW 225 4,2 C 0,0 C 0,0 km/h (0 Bft)
04.04.2014 12:10 13,9 C 52 % 1009,1 hPa 0,0 l/m 0,0 km/h (0 Bft) SW 225 4,2 C 0,0 C 0,0 km/h (0 Bft)
04.04.2014 12:15 14,0 C 51 % 1009,1 hPa 0,0 l/m 0,0 km/h (0 Bft) SW 225 4,0 C 0,0 C 0,0 km/h (0 Bft)
04.04.2014 12:20 14,1 C 51 % 1009,1 hPa 0,0 l/m 0,0 km/h (0 Bft) SW 225 4,1 C 0,0 C 0,0 km/h (0 Bft)
04.04.2014 12:25 14,5 C 50 % 1009,1 hPa 0,0 l/m 0,0 km/h (0 Bft) SW 225 4,2 C 0,0 C 0,0 km/h (0 Bft)
04.04.2014 12:30 14,6 C 49 % 1009,2 hPa 0,0 l/m 0,0 km/h (0 Bft) SW 225 4,0 C 0,0 C 0,0 km/h (0 Bft)
04.04.2014 12:35 14,8 C 49 % 1009,2 hPa 0,0 l/m 0,0 km/h (0 Bft) SW 225 4,2 C 0,0 C 0,0 km/h (0 Bft)
04.04.2014 12:40 14,9 C 48 % 1009,2 hPa 0,0 l/m 0,0 km/h (0 Bft) SW 225 4,0 C 0,0 C 0,0 km/h (0 Bft)
04.04.2014 12:45 15,0 C 48 % 1009,2 hPa 0,0 l/m 0,0 km/h (0 Bft) SW 225 4,1 C 0,0 C 0,0 km/h (0 Bft)
04.04.2014 12:50 15,1 C 47 % 1009,0 hPa 0,0 l/m 0,0 km/h (0 Bft) SW 225 3,9 C 0,0 C 0,0 km/h (0 Bft)
04.04.2014 12:55 15,2 C 45 % 1009,0 hPa 0,0 l/m 0,0 km/h (0 Bft) SW 225 3,4 C 0,0 C 0,0 km/h (0 Bft)
04.04.2014 13:00 15,2 C 45 % 1009,0 hPa 0,0 l/m 0,0 km/h (0 Bft) SW 225 3,4 C 0,0 C 0,0 km/h (0 Bft)
04.04.2014 13:05 15,2 C 44 % 1009,0 hPa 0,0 l/m 0,0 km/h (0 Bft) SW 225 3,0 C 0,0 C 0,0 km/h (0 Bft)
04.04.2014 13:10 15,3 C 45 % 1009,2 hPa 0,0 l/m 0,0 km/h (0 Bft) SW 225 3,4 C 0,0 C 0,0 km/h (0 Bft)
04.04.2014 13:15 15,4 C 44 % 1009,2 hPa 0,0 l/m 0,0 km/h (0 Bft) SW 225 3,2 C 0,0 C 0,0 km/h (0 Bft)
04.04.2014 13:20 15,6 C 45 % 1009,2 hPa 0,0 l/m 0,0 km/h (0 Bft) SW 225 3,7 C 0,0 C 0,0 km/h (0 Bft)
04.04.2014 13:25 15,8 C 43 % 1009,2 hPa 0,0 l/m 0,0 km/h (0 Bft) SW 225 3,3 C 0,0 C 0,0 km/h (0 Bft)
04.04.2014 13:30 15,8 C 42 % 1009,1 hPa 0,0 l/m 0,0 km/h (0 Bft) SW 225 2,9 C 0,0 C 0,0 km/h (0 Bft)
04.04.2014 13:35 16,1 C 40 % 1009,1 hPa 0,0 l/m 0,0 km/h (0 Bft) SW 225 2,5 C 0,0 C 0,0 km/h (0 Bft)
04.04.2014 13:40 16,1 C 39 % 1009,1 hPa 0,0 l/m 0,0 km/h (0 Bft) SW 225 2,1 C 0,0 C 0,0 km/h (0 Bft)
04.04.2014 13:45 16,4 C 40 % 1009,1 hPa 0,0 l/m 0,0 km/h (0 Bft) SW 225 2,8 C 0,0 C 0,0 km/h (0 Bft)
04.04.2014 13:50 16,7 C 40 % 1009,4 hPa 0,0 l/m 0,0 km/h (0 Bft) SW 225 3,0 C 0,0 C 0,0 km/h (0 Bft)
04.04.2014 13:55 16,4 C 38 % 1009,4 hPa 0,0 l/m 0,0 km/h (0 Bft) SW 225 2,1 C 0,0 C 0,0 km/h (0 Bft)
04.04.2014 13:59 16,4 C 39 % 1009,4 hPa 0,0 l/m 0,0 km/h (0 Bft) SW 225 2,4 C 0,0 C 0,0 km/h (0 Bft)
04.04.2014 14:00 16,4 C 39 % 1009,4 hPa 0,0 l/m 0,0 km/h (0 Bft) SW 225 2,4 C 0,0 C 0,0 km/h (0 Bft)
04.04.2014 14:05 16,7 C 39 % 1009,4 hPa 0,0 l/m 0,0 km/h (0 Bft) SW 225 2,7 C 0,0 C 0,0 km/h (0 Bft)
04.04.2014 14:10 16,4 C 39 % 1009,4 hPa 0,0 l/m 0,0 km/h (0 Bft) SW 225 2,4 C 0,0 C 0,0 km/h (0 Bft)
04.04.2014 14:15 16,3 C 40 % 1009,4 hPa 0,0 l/m 0,0 km/h (0 Bft) SW 225 2,7 C 0,0 C 0,0 km/h (0 Bft)
04.04.2014 14:20 16,5 C 40 % 1009,4 hPa 0,0 l/m 0,0 km/h (0 Bft) SW 225 2,9 C 0,0 C 0,0 km/h (0 Bft)
04.04.2014 14:25 16,6 C 39 % 1009,4 hPa 0,0 l/m 0,0 km/h (0 Bft) SW 225 2,6 C 0,0 C 0,0 km/h (0 Bft)
04.04.2014 14:30 16,8 C 39 % 1009,4 hPa 0,0 l/m 0,0 km/h (0 Bft) SW 225 2,8 C 0,0 C 0,0 km/h (0 Bft)
04.04.2014 14:35 16,7 C 38 % 1009,4 hPa 0,0 l/m 0,0 km/h (0 Bft) SW 225 2,3 C 0,0 C 0,0 km/h (0 Bft)
04.04.2014 14:40 16,8 C 38 % 1009,4 hPa 0,0 l/m 0,0 km/h (0 Bft) SW 225 2,4 C 0,0 C 0,0 km/h (0 Bft)
04.04.2014 14:45 16,5 C 38 % 1009,4 hPa 0,0 l/m 0,0 km/h (0 Bft) SW 225 2,1 C 0,0 C 0,0 km/h (0 Bft)
04.04.2014 14:50 16,8 C 38 % 1009,4 hPa 0,0 l/m 0,0 km/h (0 Bft) SW 225 2,4 C 0,0 C 0,0 km/h (0 Bft)
04.04.2014 14:55 16,8 C 39 % 1009,4 hPa 0,0 l/m 0,0 km/h (0 Bft) SW 225 2,8 C 0,0 C 0,0 km/h (0 Bft)
04.04.2014 15:00 16,7 C 39 % 1009,4 hPa 0,0 l/m 0,0 km/h (0 Bft) SW 225 2,7 C 0,0 C 0,0 km/h (0 Bft)
04.04.2014 15:05 17,0 C 39 % 1009,4 hPa 0,0 l/m 0,0 km/h (0 Bft) SW 225 2,9 C 0,0 C 0,0 km/h (0 Bft)
04.04.2014 15:10 16,8 C 38 % 1009,3 hPa 0,0 l/m 0,0 km/h (0 Bft) SW 225 2,4 C 0,0 C 0,0 km/h (0 Bft)
04.04.2014 15:15 16,9 C 39 % 1009,3 hPa 0,0 l/m 0,0 km/h (0 Bft) SW 225 2,9 C 0,0 C 0,0 km/h (0 Bft)
04.04.2014 15:20 16,9 C 39 % 1009,3 hPa 0,0 l/m 0,0 km/h (0 Bft) SW 225 2,9 C 0,0 C 0,0 km/h (0 Bft)
04.04.2014 15:25 16,9 C 40 % 1009,3 hPa 0,0 l/m 0,0 km/h (0 Bft) SW 225 3,2 C 0,0 C 0,0 km/h (0 Bft)
04.04.2014 15:30 17,0 C 39 % 1009,2 hPa 0,0 l/m 0,0 km/h (0 Bft) SW 225 2,9 C 0,0 C 0,0 km/h (0 Bft)
04.04.2014 15:35 17,1 C 40 % 1009,2 hPa 0,0 l/m 0,0 km/h (0 Bft) SW 225 3,4 C 0,0 C 0,0 km/h (0 Bft)
04.04.2014 15:40 17,0 C 40 % 1009,2 hPa 0,0 l/m 0,0 km/h (0 Bft) SW 225 3,3 C 0,0 C 0,0 km/h (0 Bft)
04.04.2014 15:45 17,0 C 40 % 1009,2 hPa 0,0 l/m 0,0 km/h (0 Bft) SW 225 3,3 C 0,0 C 0,0 km/h (0 Bft)
04.04.2014 15:50 17,0 C 40 % 1009,2 hPa 0,0 l/m 0,0 km/h (0 Bft) SW 225 3,3 C 0,0 C 0,0 km/h (0 Bft)
04.04.2014 15:55 16,9 C 40 % 1009,2 hPa 0,0 l/m 0,0 km/h (0 Bft) SW 225 3,2 C 0,0 C 0,0 km/h (0 Bft)
04.04.2014 16:00 17,1 C 39 % 1009,2 hPa 0,0 l/m 0,0 km/h (0 Bft) SW 225 3,0 C 0,0 C 0,0 km/h (0 Bft)
04.04.2014 16:05 16,8 C 39 % 1009,2 hPa 0,0 l/m 0,0 km/h (0 Bft) SW 225 2,8 C 0,0 C 0,0 km/h (0 Bft)
04.04.2014 16:10 17,1 C 39 % 1009,1 hPa 0,0 l/m 0,0 km/h (0 Bft) SW 225 3,0 C 0,0 C 0,0 km/h (0 Bft)
04.04.2014 16:15 16,6 C 40 % 1009,1 hPa 0,0 l/m 0,0 km/h (0 Bft) SW 225 2,9 C 0,0 C 0,0 km/h (0 Bft)
04.04.2014 16:20 16,5 C 39 % 1009,1 hPa 0,0 l/m 0,0 km/h (0 Bft) SW 225 2,5 C 0,0 C 0,0 km/h (0 Bft)
04.04.2014 16:25 16,2 C 39 % 1009,1 hPa 0,0 l/m 0,0 km/h (0 Bft) SW 225 2,2 C 0,0 C 0,0 km/h (0 Bft)
04.04.2014 16:30 16,2 C 39 % 1009,1 hPa 0,0 l/m 0,0 km/h (0 Bft) SW 225 2,2 C 0,0 C 0,0 km/h (0 Bft)
04.04.2014 16:35 15,9 C 38 % 1009,1 hPa 0,0 l/m 0,0 km/h (0 Bft) SW 225 1,6 C 0,0 C 0,0 km/h (0 Bft)
04.04.2014 16:40 15,9 C 38 % 1009,1 hPa 0,0 l/m 0,0 km/h (0 Bft) SW 225 1,6 C 0,0 C 0,0 km/h (0 Bft)
04.04.2014 16:45 15,9 C 38 % 1009,1 hPa 0,0 l/m 0,0 km/h (0 Bft) SW 225 1,6 C 0,0 C 0,0 km/h (0 Bft)
04.04.2014 16:50 15,7 C 38 % 1009,0 hPa 0,0 l/m 0,0 km/h (0 Bft) SW 225 1,4 C 0,0 C 0,0 km/h (0 Bft)
04.04.2014 16:55 15,7 C 40 % 1009,0 hPa 0,0 l/m 0,0 km/h (0 Bft) SW 225 2,1 C 0,0 C 0,0 km/h (0 Bft)
04.04.2014 17:00 15,8 C 41 % 1009,0 hPa 0,0 l/m 0,0 km/h (0 Bft) SW 225 2,6 C 0,0 C 0,0 km/h (0 Bft)
04.04.2014 17:05 15,7 C 43 % 1009,0 hPa 0,0 l/m 0,0 km/h (0 Bft) SW 225 3,2 C 0,0 C 0,0 km/h (0 Bft)
04.04.2014 17:10 15,6 C 43 % 1008,9 hPa 0,0 l/m 0,0 km/h (0 Bft) SW 225 3,1 C 0,0 C 0,0 km/h (0 Bft)
04.04.2014 17:15 15,5 C 41 % 1008,9 hPa 0,0 l/m 0,0 km/h (0 Bft) SW 225 2,3 C 0,0 C 0,0 km/h (0 Bft)
04.04.2014 17:20 15,4 C 42 % 1008,9 hPa 0,0 l/m 0,0 km/h (0 Bft) SW 225 2,6 C 0,0 C 0,0 km/h (0 Bft)
04.04.2014 17:25 15,7 C 42 % 1008,9 hPa 0,0 l/m 0,0 km/h (0 Bft) SW 225 2,8 C 0,0 C 0,0 km/h (0 Bft)
04.04.2014 17:30 15,4 C 42 % 1008,8 hPa 0,0 l/m 0,0 km/h (0 Bft) SW 225 2,6 C 0,0 C 0,0 km/h (0 Bft)
04.04.2014 17:35 15,0 C 42 % 1008,8 hPa 0,0 l/m 0,0 km/h (0 Bft) SW 225 2,2 C 0,0 C 0,0 km/h (0 Bft)
04.04.2014 17:40 15,0 C 43 % 1008,8 hPa 0,0 l/m 0,0 km/h (0 Bft) SW 225 2,5 C 0,0 C 0,0 km/h (0 Bft)
04.04.2014 17:45 14,8 C 42 % 1008,8 hPa 0,0 l/m 0,0 km/h (0 Bft) SW 225 2,0 C 0,0 C 0,0 km/h (0 Bft)
04.04.2014 17:50 14,7 C 43 % 1008,7 hPa 0,0 l/m 0,0 km/h (0 Bft) SW 225 2,3 C 0,0 C 0,0 km/h (0 Bft)
04.04.2014 17:55 14,6 C 43 % 1008,7 hPa 0,0 l/m 0,0 km/h (0 Bft) SW 225 2,2 C 0,0 C 0,0 km/h (0 Bft)
04.04.2014 18:00 14,5 C 45 % 1008,7 hPa 0,0 l/m 0,0 km/h (0 Bft) SW 225 2,7 C 0,0 C 0,0 km/h (0 Bft)
04.04.2014 18:05 14,3 C 46 % 1008,7 hPa 0,0 l/m 0,0 km/h (0 Bft) SW 225 2,8 C 0,0 C 0,0 km/h (0 Bft)
04.04.2014 18:10 14,1 C 47 % 1008,6 hPa 0,0 l/m 0,0 km/h (0 Bft) SW 225 3,0 C 0,0 C 0,0 km/h (0 Bft)
04.04.2014 18:15 14,0 C 47 % 1008,6 hPa 0,0 l/m 0,0 km/h (0 Bft) SW 225 2,9 C 0,0 C 0,0 km/h (0 Bft)
04.04.2014 18:20 13,9 C 48 % 1008,6 hPa 0,0 l/m 0,0 km/h (0 Bft) SW 225 3,1 C 0,0 C 0,0 km/h (0 Bft)
04.04.2014 18:25 13,6 C 48 % 1008,6 hPa 0,0 l/m 0,0 km/h (0 Bft) SW 225 2,8 C 0,0 C 0,0 km/h (0 Bft)
04.04.2014 18:30 13,5 C 48 % 1008,5 hPa 0,0 l/m 0,0 km/h (0 Bft) SW 225 2,7 C 0,0 C 0,0 km/h (0 Bft)
04.04.2014 18:35 13,3 C 48 % 1008,5 hPa 0,0 l/m 0,0 km/h (0 Bft) SW 225 2,5 C 0,0 C 0,0 km/h (0 Bft)
04.04.2014 18:40 13,1 C 48 % 1008,5 hPa 0,0 l/m 0,0 km/h (0 Bft) SW 225 2,3 C 0,0 C 0,0 km/h (0 Bft)
04.04.2014 18:45 12,7 C 51 % 1008,5 hPa 0,0 l/m 0,0 km/h (0 Bft) SW 225 2,8 C 0,0 C 0,0 km/h (0 Bft)
04.04.2014 18:50 12,6 C 52 % 1008,5 hPa 0,0 l/m 0,0 km/h (0 Bft) SW 225 3,0 C 0,0 C 0,0 km/h (0 Bft)
04.04.2014 18:55 12,4 C 54 % 1008,5 hPa 0,0 l/m 0,0 km/h (0 Bft) SW 225 3,4 C 0,0 C 0,0 km/h (0 Bft)
04.04.2014 18:59 12,2 C 55 % 1008,5 hPa 0,0 l/m 0,0 km/h (0 Bft) SW 225 3,4 C 0,0 C 0,0 km/h (0 Bft)
04.04.2014 19:00 12,2 C 55 % 1008,5 hPa 0,0 l/m 0,0 km/h (0 Bft) SW 225 3,4 C 0,0 C 0,0 km/h (0 Bft)
04.04.2014 19:05 11,9 C 57 % 1008,5 hPa 0,0 l/m 0,0 km/h (0 Bft) SW 225 3,7 C 0,0 C 0,0 km/h (0 Bft)
04.04.2014 19:10 11,8 C 57 % 1008,4 hPa 0,0 l/m 0,0 km/h (0 Bft) SW 225 3,6 C 0,0 C 0,0 km/h (0 Bft)
04.04.2014 19:15 11,5 C 58 % 1008,4 hPa 0,0 l/m 0,0 km/h (0 Bft) SW 225 3,5 C 0,0 C 0,0 km/h (0 Bft)
04.04.2014 19:20 11,5 C 59 % 1008,4 hPa 0,0 l/m 0,0 km/h (0 Bft) SW 225 3,8 C 0,0 C 0,0 km/h (0 Bft)
04.04.2014 19:25 11,3 C 59 % 1008,4 hPa 0,0 l/m 0,0 km/h (0 Bft) SW 225 3,6 C 0,0 C 0,0 km/h (0 Bft)
04.04.2014 19:30 11,1 C 59 % 1009,1 hPa 0,0 l/m 0,0 km/h (0 Bft) SW 225 3,4 C 0,0 C 0,0 km/h (0 Bft)
04.04.2014 19:35 11,2 C 59 % 1009,1 hPa 0,0 l/m 0,0 km/h (0 Bft) SW 225 3,5 C 0,0 C 0,0 km/h (0 Bft)
04.04.2014 19:40 11,0 C 60 % 1009,1 hPa 0,0 l/m 0,0 km/h (0 Bft) SW 225 3,5 C 0,0 C 0,0 km/h (0 Bft)
04.04.2014 19:45 10,4 C 63 % 1009,1 hPa 0,0 l/m 0,0 km/h (0 Bft) SW 225 3,7 C 0,0 C 0,0 km/h (0 Bft)
04.04.2014 19:50 10,2 C 64 % 1009,1 hPa 0,0 l/m 0,0 km/h (0 Bft) SW 225 3,7 C 0,0 C 0,0 km/h (0 Bft)
04.04.2014 19:55 10,1 C 64 % 1009,1 hPa 0,0 l/m 0,0 km/h (0 Bft) SW 225 3,6 C 0,0 C 0,0 km/h (0 Bft)
04.04.2014 20:00 9,9 C 65 % 1009,1 hPa 0,0 l/m 0,0 km/h (0 Bft) SW 225 3,6 C 0,0 C 0,0 km/h (0 Bft)
04.04.2014 20:05 9,8 C 65 % 1009,1 hPa 0,0 l/m 0,0 km/h (0 Bft) SW 225 3,5 C 0,0 C 0,0 km/h (0 Bft)
04.04.2014 20:10 9,7 C 65 % 1009,0 hPa 0,0 l/m 0,0 km/h (0 Bft) SW 225 3,4 C 0,0 C 0,0 km/h (0 Bft)
04.04.2014 20:15 9,2 C 67 % 1009,0 hPa 0,0 l/m 0,0 km/h (0 Bft) SW 225 3,4 C 0,0 C 0,0 km/h (0 Bft)
04.04.2014 20:20 9,2 C 67 % 1009,0 hPa 0,0 l/m 0,0 km/h (0 Bft) SW 225 3,4 C 0,0 C 0,0 km/h (0 Bft)
04.04.2014 20:25 8,8 C 68 % 1009,0 hPa 0,0 l/m 0,0 km/h (0 Bft) SW 225 3,2 C 0,0 C 0,0 km/h (0 Bft)
04.04.2014 20:30 8,9 C 68 % 1009,2 hPa 0,0 l/m 0,0 km/h (0 Bft) SW 225 3,3 C 0,0 C 0,0 km/h (0 Bft)
04.04.2014 20:35 9,1 C 68 % 1009,2 hPa 0,0 l/m 0,0 km/h (0 Bft) SW 225 3,5 C 0,0 C 0,0 km/h (0 Bft)
04.04.2014 20:40 9,1 C 68 % 1009,2 hPa 0,0 l/m 0,0 km/h (0 Bft) SW 225 3,5 C 0,0 C 0,0 km/h (0 Bft)
04.04.2014 20:45 9,0 C 68 % 1009,2 hPa 0,0 l/m 0,0 km/h (0 Bft) SW 225 3,4 C 0,0 C 0,0 km/h (0 Bft)
04.04.2014 20:50 8,9 C 69 % 1009,3 hPa 0,0 l/m 0,0 km/h (0 Bft) SW 225 3,5 C 0,0 C 0,0 km/h (0 Bft)
04.04.2014 20:55 8,4 C 69 % 1009,3 hPa 0,0 l/m 0,0 km/h (0 Bft) SW 225 3,0 C 0,0 C 0,0 km/h (0 Bft)
04.04.2014 21:00 8,4 C 71 % 1009,3 hPa 0,0 l/m 0,0 km/h (0 Bft) SW 225 3,5 C 0,0 C 0,0 km/h (0 Bft)
04.04.2014 21:05 8,5 C 71 % 1009,3 hPa 0,0 l/m 0,0 km/h (0 Bft) SW 225 3,5 C 0,0 C 0,0 km/h (0 Bft)
04.04.2014 21:10 8,5 C 72 % 1009,4 hPa 0,0 l/m 0,0 km/h (0 Bft) SW 225 3,7 C 0,0 C 0,0 km/h (0 Bft)
04.04.2014 21:15 8,3 C 71 % 1009,4 hPa 0,0 l/m 0,0 km/h (0 Bft) SW 225 3,4 C 0,0 C 0,0 km/h (0 Bft)
04.04.2014 21:20 8,5 C 71 % 1009,4 hPa 0,0 l/m 0,0 km/h (0 Bft) SW 225 3,5 C 0,0 C 0,0 km/h (0 Bft)
04.04.2014 21:25 8,5 C 71 % 1009,4 hPa 0,0 l/m 0,0 km/h (0 Bft) SW 225 3,5 C 0,0 C 0,0 km/h (0 Bft)
04.04.2014 21:30 8,5 C 71 % 1010,1 hPa 0,0 l/m 0,0 km/h (0 Bft) SW 225 3,5 C 0,0 C 0,0 km/h (0 Bft)
04.04.2014 21:35 8,6 C 71 % 1010,1 hPa 0,0 l/m 0,0 km/h (0 Bft) SW 225 3,6 C 0,0 C 0,0 km/h (0 Bft)
04.04.2014 21:40 8,5 C 71 % 1010,1 hPa 0,0 l/m 0,0 km/h (0 Bft) SW 225 3,5 C 0,0 C 0,0 km/h (0 Bft)
04.04.2014 21:45 8,3 C 72 % 1010,1 hPa 0,0 l/m 0,0 km/h (0 Bft) SW 225 3,6 C 0,0 C 0,0 km/h (0 Bft)
04.04.2014 21:50 8,2 C 73 % 1009,8 hPa 0,0 l/m 0,0 km/h (0 Bft) SW 225 3,7 C 0,0 C 0,0 km/h (0 Bft)
04.04.2014 21:55 8,3 C 73 % 1009,8 hPa 0,0 l/m 0,0 km/h (0 Bft) SW 225 3,8 C 0,0 C 0,0 km/h (0 Bft)
04.04.2014 22:00 8,1 C 74 % 1009,8 hPa 0,0 l/m 0,0 km/h (0 Bft) SW 225 3,8 C 0,0 C 0,0 km/h (0 Bft)
04.04.2014 22:05 8,0 C 74 % 1009,8 hPa 0,0 l/m 0,0 km/h (0 Bft) SW 225 3,7 C 0,0 C 0,0 km/h (0 Bft)
04.04.2014 22:10 8,0 C 73 % 1009,8 hPa 0,0 l/m 0,0 km/h (0 Bft) SW 225 3,5 C 0,0 C 0,0 km/h (0 Bft)
04.04.2014 22:15 8,6 C 74 % 1009,8 hPa 0,0 l/m 0,0 km/h (0 Bft) SW 225 4,2 C 0,0 C 0,0 km/h (0 Bft)
04.04.2014 22:20 8,8 C 73 % 1009,8 hPa 0,0 l/m 0,0 km/h (0 Bft) SW 225 4,2 C 0,0 C 0,0 km/h (0 Bft)
04.04.2014 22:25 8,5 C 72 % 1009,8 hPa 0,0 l/m 0,0 km/h (0 Bft) SW 225 3,7 C 0,0 C 0,0 km/h (0 Bft)
04.04.2014 22:30 8,5 C 72 % 1010,4 hPa 0,0 l/m 0,0 km/h (0 Bft) SW 225 3,7 C 0,0 C 0,0 km/h (0 Bft)
04.04.2014 22:35 8,5 C 72 % 1010,4 hPa 0,0 l/m 0,0 km/h (0 Bft) SW 225 3,7 C 0,0 C 0,0 km/h (0 Bft)
04.04.2014 22:40 8,5 C 72 % 1010,4 hPa 0,0 l/m 0,0 km/h (0 Bft) SW 225 3,7 C 0,0 C 0,0 km/h (0 Bft)
04.04.2014 22:45 8,3 C 73 % 1010,4 hPa 0,0 l/m 0,0 km/h (0 Bft) SW 225 3,8 C 0,0 C 0,0 km/h (0 Bft)
04.04.2014 22:50 8,2 C 73 % 1009,9 hPa 0,0 l/m 0,0 km/h (0 Bft) SW 225 3,7 C 0,0 C 0,0 km/h (0 Bft)
04.04.2014 22:55 8,3 C 73 % 1009,9 hPa 0,0 l/m 0,0 km/h (0 Bft) SW 225 3,8 C 0,0 C 0,0 km/h (0 Bft)
04.04.2014 23:00 8,2 C 73 % 1009,9 hPa 0,0 l/m 0,0 km/h (0 Bft) SW 225 3,7 C 0,0 C 0,0 km/h (0 Bft)
04.04.2014 23:05 8,1 C 74 % 1009,9 hPa 0,0 l/m 0,0 km/h (0 Bft) SW 225 3,8 C 0,0 C 0,0 km/h (0 Bft)
04.04.2014 23:10 8,1 C 74 % 1010,0 hPa 0,0 l/m 0,0 km/h (0 Bft) SW 225 3,8 C 0,0 C 0,0 km/h (0 Bft)
04.04.2014 23:15 7,9 C 74 % 1010,0 hPa 0,0 l/m 0,0 km/h (0 Bft) SW 225 3,6 C 0,0 C 0,0 km/h (0 Bft)
04.04.2014 23:20 7,8 C 74 % 1010,0 hPa 0,0 l/m 0,0 km/h (0 Bft) SW 225 3,5 C 0,0 C 0,0 km/h (0 Bft)
04.04.2014 23:25 7,8 C 74 % 1010,0 hPa 0,0 l/m 0,0 km/h (0 Bft) SW 225 3,5 C 0,0 C 0,0 km/h (0 Bft)
04.04.2014 23:30 7,8 C 74 % 1010,1 hPa 0,0 l/m 0,0 km/h (0 Bft) SW 225 3,5 C 0,0 C 0,0 km/h (0 Bft)
04.04.2014 23:35 7,6 C 75 % 1010,1 hPa 0,0 l/m 0,0 km/h (0 Bft) SW 225 3,5 C 0,0 C 0,0 km/h (0 Bft)
04.04.2014 23:40 7,3 C 74 % 1010,1 hPa 0,0 l/m 0,0 km/h (0 Bft) SW 225 3,0 C 0,0 C 0,0 km/h (0 Bft)
04.04.2014 23:45 7,4 C 76 % 1010,1 hPa 0,0 l/m 0,0 km/h (0 Bft) SW 225 3,5 C 0,0 C 0,0 km/h (0 Bft)
04.04.2014 23:50 7,0 C 75 % 1010,1 hPa 0,0 l/m 0,0 km/h (0 Bft) SW 225 2,9 C 0,0 C 0,0 km/h (0 Bft)
04.04.2014 23:55 6,6 C 75 % 1010,1 hPa 0,0 l/m 0,0 km/h (0 Bft) SW 225 2,5 C 0,0 C 0,0 km/h (0 Bft)
04.04.2014 23:59 6,6 C 76 % 1010,1 hPa 0,0 l/m 0,0 km/h (0 Bft) SW 225 2,7 C 0,0 C 0,0 km/h (0 Bft)
_ Min-Zeit 03:20 16:50 07:45 - 23:59 - - 06:50 23:59 23:59
Minimum _ 4,8 C 38 % 1006,8 hPa - 0,0 km/h (0 Bft) - - -1,4 C 0,0 C 0,0 km/h (0 Bft)
_ Max-Zeit 16:10 23:59 22:45 23:59 23:59 - - 22:15 23:59 23:59
Maximum _ 17,1 C 76 % 1010,4 hPa 0,0 l/m 0,0 km/h
SW (0 Bft)
- - 4,2 C 0,0 C 0,0 km/h
SW (0 Bft)
Durchschnitt _ 10,0 C 58 % 1008,4 hPa #0,0 l/m 0,0 km/h (0 Bft) - - - 1,9 C 0,0 C 0,0 km/h (0 Bft)